Flag for Jordan Weather past 2 weeks in Zarqa, Jordan

Now
75 °F

Clear.


Feels Like: 78 °F
Forecast: 67 / 97 °F
Wind: No wind

Location: Amman Airport

Current Time: Aug 22, 2014 at 3:19:42 AM

Latest Report: Aug 22, 2014 at 2:00 AM


Visibility: 4 mi

Pressure: 29.95 "Hg

Humidity: 41%

Dew point: 50 °F

Location of ZarqaLocation

Historic Weather in Zarqa — Graph

°F

Zarqa temperature yesterday

Maximum temperature yesterday: 95 °F (at 3:00 PM)
Minimum temperature yesterday: 73 °F (at 5:00 AM)
Average temperature yesterday: 82 °F

Past Weeks' High & Low Weather Summary

 TemperatureHumidityPressure
High99 °F (Aug 11, 8:00 PM)78% (Aug 9, 6:00 AM)30.07 "Hg (Aug 9, 6:00 AM)
Low64 °F (Aug 10, 5:00 AM)10% (Aug 21, 1:00 PM)29.74 "Hg (Aug 17, 4:00 PM)
Average80 °F41%29.89 "Hg
* Reported Aug 7 2:01 AM — Aug 22 2:00 AM, Zarqa, Weather by CustomWeather, © 2014

Note: Actual official high and low records may vary slightly from our data, if they occured in-between our weather recording intervals... More about our weather records

Advertising

Zarqa weather history for previous 24 hours

 ConditionsComfort  
Time TempWeatherWind HumidityBarometerVisibility
2:00 AM
Aug 22
75 °FClear.No wind41%29.95 "Hg4 mi
1:00 AM77 °FClear.No wind17%29.95 "Hg4 mi
12:00 AM77 °FClear.5 mph24%29.95 "Hg4 mi
11:00 PM
Aug 21
77 °FClear.No wind44%29.92 "Hg4 mi
10:00 PM77 °FClear.5 mph51%29.95 "Hg4 mi
9:00 PM79 °FClear.6 mph51%29.92 "Hg4 mi
8:00 PM82 °FClear.7 mph42%29.92 "Hg4 mi
7:00 PM86 °FClear.10 mph35%29.92 "Hg4 mi
6:00 PM90 °FClear.13 mph29%29.92 "Hg4 mi
5:00 PM93 °FClear.12 mph17%29.92 "Hg4 mi
4:00 PM95 °FHaze.7 mph12%29.95 "Hg3 mi
3:00 PM95 °FHaze.5 mph15%29.98 "Hg3 mi
2:00 PM93 °FHaze.5 mph11%29.98 "Hg3 mi
1:00 PM93 °FHaze.6 mph10%30.01 "Hg3 mi
12:00 PM88 °FHaze.6 mph16%30.01 "Hg3 mi
11:00 AM86 °FHaze.7 mph19%30.04 "Hg3 mi
10:00 AM84 °FHaze.5 mph18%30.04 "Hg3 mi
9:00 AM81 °FHaze.No wind20%30.04 "Hg3 mi
8:00 AM75 °FHaze.7 mph36%29.98 "Hg3 mi
7:00 AM73 °FHaze.7 mph41%30.01 "Hg3 mi
6:00 AM73 °FHaze.No wind44%30.01 "Hg3 mi
5:00 AM73 °FHaze.No wind47%30.01 "Hg3 mi
4:00 AM75 °FHaze.No wind44%30.01 "Hg3 mi
3:00 AM75 °FHaze.3 mph47%30.01 "Hg3 mi
Weather by CustomWeather, © 2014

See weather overviewHow to use our weather pages